Vorticity
1 20 56 60 40 25 17 13 7 2 1 6 1 -11 20 -10 -21 -5 47 -30 40 10 -14 -24 -28 16 -2 5 -15 55 -16 12 -4 -2 -4 -0 6 1 7 8 -16 7 10
7 8 1 40 56 85 21 16 18 12 2 4 7 6 -2 16 -2 11 -23 -87 -28 -16 -9 41 51 53 14 -2 -30 -60 60 26 -49 26 45 52 9 -9 -13 -22 24 10 14
28 29 15 5 0 12 35 68 75 34 7 9 8 7 5 9 7 -0 5 9 5 9 6 -43 -70 -30 -1 2 48 4 5 1 -46 89 21 15 57 -8 15 -11 -20 -8 12
8 10 6 16 25 21 9 4 4 19 50 68 53 53 38 10 1 3 10 8 6 7 3 6 7 5 5 5 6 4 27 39 20 13 27 19 -16 47 17 26 44 13 12
4 5 7 10 11 10 9 13 16 18 14 12 11 14 16 33 35 21 34 38 14 6 1 5 8 7 4 5 5 6 13 -1 11 -12 -2 0 -3 -30 6 22 -31 35 -13
6 6 8 11 10 10 10 10 13 17 20 20 19 18 20 13 16 23 8 4 23 18 20 31 21 6 4 6 8 6 5 1 7 9 5 -9 10 -15 -34 6 38 49 3
9 6 6 6 6 7 7 8 11 12 7 11 16 17 15 18 20 19 20 11 11 15 12 10 9 27 34 16 10 6 5 4 5 1 -4 20 5 -0 6 18 4 9 -3
10 6 6 5 5 7 6 8 5 4 9 10 6 11 15 19 16 16 18 18 17 18 18 11 9 4 11 20 26 29 20 12 15 16 7 17 -2 8 10 -12 3 5 7
9 7 5 5 5 6 5 4 7 6 5 7 6 11 17 18 14 17 14 16 18 16 16 24 24 7 3 6 9 14 25 27 10 32 49 23 10 7 14 10 16 23 4
9 7 5 3 4 4 6 4 5 5 4 8 7 12 13 12 16 21 23 20 18 18 23 23 25 44 41 16 6 6 7 11 13 4 9 37 45 38 31 31 26 24 18
10 10 7 5 5 4 7 4 5 5 6 8 11 12 16 30 32 29 31 29 24 20 18 19 23 22 22 40 50 29 13 5 21 15 7 9 -9 4 15 19 18 6 7
9 9 8 5 5 4 7 5 8 7 6 11 11 28 40 38 33 27 27 23 26 20 14 12 14 16 17 19 26 31 39 37 21 16 14 13 12 16 10 8 14 26 23
9 10 8 5 5 6 6 9 7 8 10 10 27 43 38 31 20 25 20 13 14 18 16 13 11 10 9 9 13 15 21 28 33 34 25 24 13 11 10 23 2 -2 2
8 9 8 6 5 6 8 10 8 9 10 25 38 35 16 12 17 23 23 13 13 11 9 7 6 5 5 6 9 11 6 10 15 20 24 25 27 22 22 24 18 13 16
7 8 7 7 6 6 8 7 10 8 20 36 30 15 6 15 24 25 18 15 10 9 8 9 12 10 10 12 16 13 18 28 22 8 10 16 22 20 12 7 8 6 9
7 9 7 7 6 6 8 7 8 12 33 30 19 7 9 20 19 20 21 22 20 20 15 9 9 11 17 19 18 16 13 12 14 16 25 24 19 21 22 27 27 20 15
7 9 8 7 6 6 7 8 7 12 43 24 16 5 16 18 16 15 15 10 8 7 7 11 22 24 22 22 21 21 20 21 18 19 22 12 17 27 22 23 20 18 23
7 8 8 7 6 6 7 9 7 17 41 36 8 9 19 15 11 8 7 7 10 20 28 25 18 14 13 14 11 12 13 24 17 16 24 28 17 15 25 27 18 15 14
7 8 8 7 5 6 8 9 5 24 38 31 6 16 18 11 6 6 10 13 29 16 13 15 14 15 8 9 22 21 15 10 17 18 17 22 12 16 18 19 23 21 19
7 8 8 7 5 7 8 9 4 27 41 24 9 20 15 5 8 15 26 24 11 8 8 10 12 13 3 8 15 10 15 19 14 19 17 15 17 18 13 16 21 22 19
7 8 8 7 5 8 7 8 6 30 37 19 10 19 7 3 19 23 11 10 12 18 21 20 17 13 11 10 9 15 8 6 6 10 16 20 19 15 13 10 9 19 26
7 8 8 7 6 9 8 8 9 29 36 17 11 17 5 12 19 9 19 22 16 18 18 20 20 20 18 19 20 22 18 14 9 9 15 12 15 20 16 9 11 14 15
8 8 8 7 7 9 8 7 12 30 34 13 15 10 6 18 11 23 7 15 15 14 12 11 13 21 29 29 30 23 20 27 14 12 9 18 12 24 13 11 11 13 16
8 8 8 6 7 9 8 7 15 31 33 11 17 8 9 16 20 9 5 18 21 13 12 14 35 7 20 30 22 23 34 23 25 15 14 21 15 21 11 10 13 12 11
9 8 8 6 8 8 8 7 15 31 33 9 16 7 14 15 18 6 15 22 16 13 16 29 17 24 22 30 38 37 39 22 25 18 27 16 20 9 9 9 11 9 3
9 8 8 6 8 8 8 7 15 30 34 9 14 8 17 17 16 9 24 12 15 13 22 12 13 12 27 19 27 34 33 23 16 25 17 15 2 -1 16 10 5 2 2
Height
5661 5657 5654 5656 5660 5668 5676 5681 5686 5685 5689 5692 5691 5690 5691 5692 5691 5692 5690 5696 5698 5700 5700 5700 5703 5705 5708 5702 5708 5715 5702 5706 5707 5710 5712 5715 5716 5720 5720 5718 5718 5718 5715
5659 5655 5652 5651 5652 5657 5661 5668 5671 5674 5672 5676 5677 5677 5676 5677 5678 5676 5676 5675 5677 5678 5681 5682 5680 5681 5684 5689 5693 5689 5691 5694 5691 5685 5693 5692 5687 5695 5699 5698 5699 5699 5699
5658 5655 5652 5651 5651 5652 5654 5657 5658 5658 5660 5659 5660 5660 5659 5660 5659 5659 5657 5657 5659 5660 5662 5663 5660 5661 5664 5665 5668 5670 5673 5677 5673 5671 5678 5676 5673 5663 5681 5678 5679 5679 5682
5659 5656 5653 5651 5649 5649 5649 5650 5650 5648 5647 5647 5644 5641 5639 5639 5640 5638 5637 5636 5636 5637 5638 5638 5639 5642 5645 5645 5648 5650 5652 5654 5653 5653 5659 5660 5657 5659 5663 5661 5659 5663 5666
5659 5656 5653 5650 5648 5646 5645 5643 5642 5640 5638 5635 5631 5626 5623 5621 5619 5617 5617 5616 5613 5614 5616 5616 5616 5619 5622 5625 5631 5631 5634 5637 5637 5643 5644 5638 5641 5643 5647 5649 5649 5651 5651
5658 5654 5650 5647 5644 5641 5639 5637 5634 5631 5627 5623 5618 5613 5608 5603 5601 5598 5593 5594 5594 5590 5588 5591 5595 5600 5600 5603 5608 5610 5616 5619 5620 5625 5626 5623 5625 5627 5628 5632 5634 5635 5637
5654 5650 5647 5643 5639 5635 5632 5628 5625 5621 5616 5611 5605 5599 5593 5587 5582 5577 5572 5568 5569 5571 5569 5566 5565 5570 5576 5580 5581 5585 5588 5596 5599 5601 5604 5607 5608 5610 5611 5611 5616 5619 5621
5649 5645 5642 5638 5634 5630 5625 5620 5614 5608 5603 5597 5591 5583 5575 5569 5563 5557 5552 5546 5542 5542 5545 5546 5546 5544 5548 5554 5557 5559 5563 5564 5571 5578 5580 5584 5585 5588 5590 5591 5593 5595 5597
5643 5639 5635 5631 5627 5622 5617 5612 5606 5599 5591 5582 5573 5566 5558 5550 5542 5536 5533 5529 5523 5518 5514 5515 5520 5523 5523 5525 5529 5534 5539 5539 5542 5547 5554 5559 5564 5564 5570 5569 5571 5576 5576
5637 5633 5629 5623 5618 5612 5607 5601 5594 5587 5578 5569 5558 5547 5536 5527 5519 5512 5508 5506 5504 5501 5495 5491 5491 5494 5497 5499 5502 5505 5511 5516 5520 5524 5529 5532 5536 5540 5543 5547 5549 5553 5556
5632 5627 5622 5616 5610 5604 5596 5588 5580 5572 5563 5553 5543 5529 5516 5503 5492 5485 5482 5481 5480 5481 5481 5479 5476 5474 5474 5476 5478 5480 5486 5492 5494 5500 5503 5508 5513 5514 5519 5524 5528 5529 5533
5625 5620 5614 5608 5601 5594 5586 5576 5566 5556 5545 5533 5520 5506 5493 5483 5473 5467 5464 5463 5463 5465 5466 5466 5465 5462 5460 5458 5458 5460 5464 5468 5473 5478 5483 5485 5488 5494 5500 5505 5507 5509 5513
5616 5610 5604 5598 5591 5583 5574 5565 5554 5542 5529 5515 5501 5488 5479 5470 5463 5457 5454 5453 5452 5452 5452 5453 5451 5450 5448 5448 5445 5444 5445 5448 5451 5457 5462 5466 5467 5469 5475 5481 5483 5487 5492
5609 5602 5596 5589 5581 5572 5561 5550 5538 5525 5512 5498 5484 5477 5470 5464 5456 5449 5446 5445 5444 5443 5442 5441 5439 5438 5436 5434 5433 5432 5432 5432 5433 5436 5440 5444 5447 5450 5455 5459 5462 5466 5470
5601 5594 5587 5579 5571 5562 5550 5537 5525 5509 5495 5483 5473 5468 5462 5456 5449 5442 5439 5437 5435 5434 5434 5432 5430 5427 5424 5421 5419 5416 5415 5416 5418 5420 5422 5425 5427 5431 5435 5438 5441 5444 5449
5592 5585 5578 5570 5561 5551 5541 5530 5514 5499 5483 5470 5463 5458 5454 5446 5440 5436 5433 5430 5428 5426 5425 5422 5419 5416 5412 5409 5406 5405 5403 5402 5403 5404 5406 5409 5411 5413 5417 5422 5426 5429 5432
5585 5578 5570 5561 5552 5541 5530 5519 5509 5496 5476 5465 5458 5453 5446 5440 5434 5430 5427 5424 5421 5418 5414 5410 5407 5403 5400 5398 5396 5394 5392 5392 5392 5393 5394 5396 5398 5399 5402 5407 5411 5415 5418
5577 5569 5561 5552 5542 5531 5520 5508 5495 5483 5473 5464 5455 5447 5441 5435 5430 5425 5420 5417 5413 5408 5402 5399 5397 5394 5392 5390 5388 5386 5384 5383 5383 5383 5384 5385 5388 5390 5391 5393 5396 5401 5405
5568 5560 5552 5543 5533 5522 5511 5498 5485 5473 5461 5454 5450 5444 5436 5431 5426 5419 5413 5407 5404 5400 5396 5393 5389 5386 5384 5382 5379 5377 5376 5375 5374 5374 5376 5378 5380 5382 5383 5385 5388 5391 5394
5560 5551 5543 5534 5524 5514 5503 5491 5478 5466 5454 5447 5442 5436 5431 5427 5421 5415 5407 5401 5397 5393 5390 5386 5383 5379 5377 5375 5373 5371 5370 5369 5369 5369 5370 5372 5374 5376 5378 5380 5382 5384 5387
5551 5543 5535 5527 5517 5507 5495 5483 5470 5458 5448 5442 5436 5429 5424 5418 5412 5406 5401 5396 5391 5386 5381 5377 5373 5371 5368 5366 5364 5364 5363 5363 5364 5365 5365 5366 5369 5371 5374 5376 5378 5380 5381
5543 5536 5528 5519 5510 5500 5488 5476 5464 5452 5442 5437 5432 5425 5419 5413 5406 5400 5394 5389 5383 5378 5374 5369 5365 5362 5359 5356 5354 5353 5354 5355 5357 5359 5361 5363 5364 5367 5370 5373 5375 5377 5378
5535 5528 5520 5511 5502 5492 5481 5469 5457 5446 5437 5432 5426 5420 5415 5409 5402 5397 5391 5385 5380 5374 5369 5364 5359 5354 5350 5346 5344 5343 5344 5346 5350 5353 5356 5359 5361 5364 5367 5370 5373 5375 5378
5526 5520 5512 5503 5495 5485 5475 5463 5452 5440 5432 5427 5422 5416 5410 5404 5398 5393 5388 5382 5377 5371 5366 5360 5354 5349 5344 5339 5336 5334 5335 5339 5343 5348 5352 5356 5359 5362 5366 5369 5372 5375 5378
5518 5511 5504 5495 5487 5478 5469 5458 5447 5436 5428 5423 5418 5412 5407 5401 5396 5391 5385 5380 5375 5370 5365 5359 5354 5349 5342 5336 5331 5328 5330 5335 5341 5346 5350 5355 5359 5363 5366 5370 5373 5375 5377
5509 5502 5495 5488 5480 5471 5462 5452 5442 5431 5424 5419 5413 5408 5403 5398 5393 5389 5384 5379 5375 5371 5366 5361 5357 5352 5346 5341 5336 5333 5334 5339 5343 5348 5353 5357 5361 5365 5368 5370 5373 5375 5376